TimeCST,TemperatureF,Dew PointF,Humidity,Sea Level PressureIn,VisibilityMPH,Wind Direction,Wind SpeedMPH,Gust SpeedMPH,PrecipitationIn,Events,Conditions,WindDirDegrees,DateUTC
12:15 AM,-7.6,-11.2,84,30.11,10.0,Calm,Calm,-,N/A,,Clear,0,2013-02-17 06:15:00
12:35 AM,-11.2,-14.8,84,30.11,10.0,East,5.8,-,N/A,,Scattered Clouds,100,2013-02-17 06:35:00
12:55 AM,-7.6,-11.2,84,30.11,10.0,ESE,4.6,-,N/A,,Scattered Clouds,110,2013-02-17 06:55:00
1:15 AM,-9.4,-13.0,84,30.11,10.0,Calm,Calm,-,N/A,,Clear,0,2013-02-17 07:15:00
1:35 AM,-7.6,-13.0,77,30.11,10.0,ESE,3.5,-,N/A,,Clear,120,2013-02-17 07:35:00
1:55 AM,-7.6,-11.2,84,30.10,10.0,ESE,5.8,-,N/A,,Clear,110,2013-02-17 07:55:00
2:15 AM,-4.0,-7.6,85,30.10,10.0,ESE,4.6,-,N/A,,Clear,120,2013-02-17 08:15:00
2:35 AM,-5.8,-9.4,84,30.10,10.0,SE,3.5,-,N/A,,Clear,130,2013-02-17 08:35:00
2:55 AM,-0.4,-5.8,78,30.10,10.0,SE,3.5,-,N/A,,Mostly Cloudy,140,2013-02-17 08:55:00
3:15 AM,1.4,-4.0,78,30.09,10.0,SE,3.5,-,N/A,,Overcast,130,2013-02-17 09:15:00
3:35 AM,1.4,-0.4,92,30.09,10.0,SE,3.5,-,N/A,,Overcast,130,2013-02-17 09:35:00
3:55 AM,3.2,-0.4,85,30.08,10.0,ESE,3.5,-,N/A,,Overcast,120,2013-02-17 09:55:00
4:15 AM,5.0,1.4,85,30.08,10.0,SE,5.8,-,N/A,,Overcast,140,2013-02-17 10:15:00
4:35 AM,8.6,3.2,79,30.07,10.0,SE,5.8,-,N/A,,Overcast,140,2013-02-17 10:35:00
4:55 AM,10.4,3.2,73,30.07,10.0,SE,5.8,-,N/A,,Overcast,140,2013-02-17 10:55:00
5:15 AM,10.4,3.2,73,30.06,10.0,SE,6.9,-,N/A,,Overcast,140,2013-02-17 11:15:00
5:35 AM,10.4,3.2,73,30.06,10.0,SE,8.1,-,N/A,,Overcast,140,2013-02-17 11:35:00
6:15 AM,10.4,3.2,73,30.04,10.0,SE,5.8,-,N/A,,Overcast,140,2013-02-17 12:15:00
6:35 AM,10.4,3.2,73,30.03,10.0,SE,8.1,-,N/A,,Overcast,140,2013-02-17 12:35:00
6:55 AM,10.4,3.2,73,30.04,10.0,SSE,6.9,-,N/A,,Mostly Cloudy,150,2013-02-17 12:55:00
7:15 AM,10.4,3.2,73,30.02,10.0,SE,6.9,-,N/A,,Overcast,130,2013-02-17 13:15:00
7:35 AM,8.6,3.2,79,30.02,10.0,SE,8.1,-,N/A,,Mostly Cloudy,130,2013-02-17 13:35:00
7:55 AM,8.6,1.4,73,30.02,10.0,SE,8.1,-,N/A,,Scattered Clouds,130,2013-02-17 13:55:00
8:15 AM,10.4,3.2,73,30.01,10.0,SE,6.9,-,N/A,,Clear,130,2013-02-17 14:15:00
8:35 AM,10.4,3.2,73,30.01,10.0,SE,6.9,-,N/A,,Clear,130,2013-02-17 14:35:00
8:55 AM,12.2,3.2,67,30.00,10.0,SE,9.2,-,N/A,,Clear,130,2013-02-17 14:55:00
9:15 AM,12.2,5.0,73,30.00,10.0,SE,6.9,-,N/A,,Clear,140,2013-02-17 15:15:00
9:35 AM,14.0,5.0,67,30.00,10.0,SSE,11.5,-,N/A,,Clear,150,2013-02-17 15:35:00
9:55 AM,14.0,5.0,67,30.00,10.0,SSE,9.2,-,N/A,,Clear,150,2013-02-17 15:55:00
10:15 AM,17.6,6.8,63,29.99,10.0,SSE,11.5,-,N/A,,Clear,150,2013-02-17 16:15:00
10:35 AM,17.6,8.6,68,29.99,10.0,SSE,11.5,17.3,N/A,,Clear,150,2013-02-17 16:35:00
10:55 AM,17.6,8.6,68,29.98,10.0,SE,11.5,-,N/A,,Clear,140,2013-02-17 16:55:00
11:15 AM,19.4,8.6,63,29.97,10.0,SSE,10.4,-,N/A,,Clear,160,2013-02-17 17:15:00
11:35 AM,19.4,10.4,68,29.98,10.0,SSE,11.5,17.3,N/A,,Clear,150,2013-02-17 17:35:00
11:55 AM,21.2,10.4,63,29.97,10.0,SE,10.4,-,N/A,,Clear,130,2013-02-17 17:55:00
12:15 PM,21.2,10.4,63,29.95,10.0,SE,11.5,-,N/A,,Clear,130,2013-02-17 18:15:00
12:55 PM,23.0,12.2,63,29.93,2.5,SE,11.5,-,N/A,,Haze,140,2013-02-17 18:55:00
1:15 PM,24.8,14.0,64,29.91,5.0,SE,13.8,17.3,N/A,,Haze,140,2013-02-17 19:15:00
1:35 PM,26.6,14.0,59,29.89,7.0,SSE,15.0,21.9,N/A,,Clear,150,2013-02-17 19:35:00
1:55 PM,26.6,14.0,59,29.88,10.0,SSE,11.5,16.1,N/A,,Clear,150,2013-02-17 19:55:00
2:15 PM,26.6,14.0,59,29.87,10.0,SSE,11.5,18.4,N/A,,Clear,160,2013-02-17 20:15:00
2:35 PM,28.4,15.8,59,29.86,10.0,SSE,12.7,-,N/A,,Clear,160,2013-02-17 20:35:00
2:55 PM,28.4,15.8,59,29.86,10.0,SSE,12.7,-,N/A,,Clear,160,2013-02-17 20:55:00
3:15 PM,28.4,17.6,64,29.84,10.0,SSE,17.3,-,N/A,,Clear,150,2013-02-17 21:15:00
3:35 PM,28.4,15.8,59,29.84,10.0,SSE,15.0,20.7,N/A,,Clear,160,2013-02-17 21:35:00
3:55 PM,28.4,17.6,64,29.83,10.0,SSE,11.5,21.9,N/A,,Clear,150,2013-02-17 21:55:00
4:15 PM,28.4,17.6,64,29.82,10.0,SE,10.4,-,N/A,,Clear,140,2013-02-17 22:15:00
4:35 PM,28.4,17.6,64,29.81,10.0,SE,9.2,-,N/A,,Clear,140,2013-02-17 22:35:00
4:55 PM,26.6,17.6,69,29.80,10.0,SE,11.5,16.1,N/A,,Clear,140,2013-02-17 22:55:00
5:15 PM,26.6,15.8,64,29.79,10.0,SE,9.2,-,N/A,,Clear,140,2013-02-17 23:15:00
5:35 PM,26.6,15.8,64,29.78,10.0,SE,9.2,-,N/A,,Clear,130,2013-02-17 23:35:00
5:55 PM,26.6,15.8,64,29.78,10.0,SE,10.4,-,N/A,,Scattered Clouds,140,2013-02-17 23:55:00
6:15 PM,26.6,15.8,64,29.78,10.0,SE,10.4,17.3,N/A,,Mostly Cloudy,140,2013-02-18 00:15:00
6:35 PM,26.6,15.8,64,29.77,10.0,SE,11.5,-,N/A,,Scattered Clouds,140,2013-02-18 00:35:00
6:55 PM,26.6,15.8,64,29.77,10.0,SE,9.2,-,N/A,,Clear,140,2013-02-18 00:55:00
7:15 PM,24.8,15.8,69,29.76,10.0,SE,10.4,-,N/A,,Clear,140,2013-02-18 01:15:00
7:35 PM,24.8,15.8,69,29.76,10.0,SE,8.1,-,N/A,,Clear,130,2013-02-18 01:35:00
7:55 PM,24.8,15.8,69,29.76,10.0,SE,8.1,-,N/A,,Clear,140,2013-02-18 01:55:00
8:15 PM,26.6,15.8,64,29.76,10.0,SSE,6.9,-,N/A,,Clear,150,2013-02-18 02:15:00
8:35 PM,26.6,17.6,69,29.74,10.0,SSE,10.4,-,N/A,,Clear,150,2013-02-18 02:35:00
8:55 PM,26.6,17.6,69,29.74,10.0,SSE,10.4,-,N/A,,Clear,150,2013-02-18 02:55:00
9:15 PM,26.6,17.6,69,29.74,10.0,SSE,8.1,-,N/A,,Clear,150,2013-02-18 03:15:00
9:35 PM,26.6,17.6,69,29.73,10.0,SSE,11.5,-,N/A,,Clear,150,2013-02-18 03:35:00
9:55 PM,26.6,17.6,69,29.72,10.0,SSE,10.4,-,N/A,,Clear,150,2013-02-18 03:55:00
10:15 PM,26.6,17.6,69,29.72,10.0,SE,9.2,-,N/A,,Clear,140,2013-02-18 04:15:00
10:35 PM,26.6,17.6,69,29.71,10.0,SE,8.1,-,N/A,,Clear,130,2013-02-18 04:35:00
10:55 PM,26.6,17.6,69,29.70,10.0,SE,9.2,-,N/A,,Clear,140,2013-02-18 04:55:00
11:15 PM,24.8,17.6,74,29.69,10.0,SE,9.2,-,N/A,,Clear,140,2013-02-18 05:15:00
11:35 PM,24.8,19.4,80,29.68,10.0,SE,9.2,-,N/A,,Clear,130,2013-02-18 05:35:00
11:55 PM,24.8,19.4,80,29.67,10.0,SE,9.2,-,N/A,,Clear,140,2013-02-18 05:55:00